Skip Page Navigation
NASA JPL Caltech
NASA Logo - Jet Propulsion Laboratory + View the NASA Portal
+ Near-Earth Object (NEO) Program
Search JPL
JPL Home Earth Solar System Stars & Galaxies Technology
JPL Solar System Dynamics
BODIES ORBITS EPHEMERIDES TOOLS PHYSICAL DATA DISCOVERY FAQ SITE MAP
JPL Small-Body Database Browser
Search: [ help ]  
5827 Letunov (1990 VB15)
Classification: Main-belt Asteroid          SPK-ID: 2005827
Ephemeris | Orbit Diagram | Orbital Elements | Physical Parameters | Discovery Circumstances | Close-Approach Data ]

[ show orbit diagram ]
Orbital Elements at Epoch 2457400.5 (2016-Jan-13.0) TDB
Reference: JPL 19 (heliocentric ecliptic J2000)
 Element Value Uncertainty (1-sigma)   Units 
e .1304115998846202 4.8047e-08  
a 2.184518705618948 1.0895e-08 au
q 1.899632126241301 1.0576e-07 au
i 3.703303597285982 4.8307e-06 deg
node 105.4159864067309 7.831e-05 deg
peri 283.6837948563877 8.099e-05 deg
M 303.0882106302383 2.3195e-05 deg
tp 2457586.936876538730
(2016-Jul-17.43687654)
7.6835e-05 JED
period 1179.321126557366
3.23
8.8228e-06
2.416e-08
d
yr
n .3052603670816106 2.2837e-09 deg/d
Q 2.469405284996595 1.2316e-08 au
  Orbit Determination Parameters
   # obs. used (total)      1241  
   data-arc span      12754 days (34.92 yr)  
   first obs. used      1980-09-04  
   last obs. used      2015-08-06  
   planetary ephem.      DE431  
   SB-pert. ephem.      SB431-BIG16  
   condition code      0  
   fit RMS      .5024  
   data source      ORB  
   producer      Otto Matic  
   solution date      2015-Oct-28 16:09:00  

Additional Information
 Earth MOID = .907195 au 
 Jupiter MOID = 2.95525 au 
 T_jup = 3.664 
[ show covariance matrix ]

Ephemeris | Orbit Diagram | Orbital Elements | Physical Parameters | Discovery Circumstances | Close-Approach Data ]

Physical Parameter Table
Parameter Symbol Value Units Sigma Reference Notes
absolute magnitude H 13.7 mag n/a MPO344347  

5827 Letunov           Discovered 1990 Nov. 15 by L. I. Chernykh at the Crimean Astrophysical Observatory.
Yurij Aleksandrovich Letunov (1926-1984), a Russian journalist and radio commentator, held a doctorate in the history of science. Author of several books, he was one of the founders of Mayak ("Beacon"), a popular and informative radio program on music.
NOTE: some special characters may not display properly (any characters within {} are an attempt to place the proper accent above a character)
Reference: 20000124/MPCPages.arcLast Updated: 2013-03-29

[ show close-approach data ]
Alternate Designations
 1990 VB15 = 1980 RM3 = 1985 DS4 = 1990 UR11 
Ephemeris | Orbit Diagram | Orbital Elements | Physical Parameters | Discovery Circumstances | Close-Approach Data ]
ABOUT SSD CREDITS/AWARDS PRIVACY/COPYRIGHT GLOSSARY LINKS
FirstGov 2016-Feb-09 09:55 UT
(server date/time)  
NASA Home Page
Site Manager:   Ryan S. Park
Webmaster  Alan B. Chamberlin